This demonstration page uses our WeatherBlox Daily Observations layout. Learn more.

Left ArrowRight Arrow

Hourly Observations for April 15, 2021

Temp ( °F °C ) Dew Point ( °F °C ) Humidity (%) Winds ( mph kmh ) Pressure ( in mb ) Visibility ( mi km ) Precip ( " mm )
12:27 am 00:27 Cloudy 64 17.8 57 13.9 78 78 NNW 5 7 29.97 1015 10 16 0.00 0.00
12:53 am 00:53 Cloudy 63 17.2 57 13.9 81 81 NW 7 11 29.95 1014 10 16 0.00 0.00
1:33 am 01:33 Cloudy 62 16.7 58 14.4 86 86 NNW 8 13 29.94 1014 10 16 0.00 0.00
1:53 am 01:53 Mostly Cloudy 61 16.1 58 14.4 90 90 NW 5 7 29.91 1013 10 16 0.00 0.00
2:00 am 02:00 Mostly Cloudy 61 16.1 58 14.4 90 90 W 3 6 29.93 1014 10 16 0.00 0.00
2:32 am 02:32 Cloudy 62 16.7 58 14.4 86 86 SW 5 7 29.93 1013 10 16 0.00 0.00
2:49 am 02:49 Cloudy 63 17 57 14 83 83 W 5 7 29.93 1013 10 16 0.00 0.00
2:53 am 02:53 Cloudy 62 16.7 58 14.4 86 86 W 5 7 29.91 1013 10 16 0.00 0.00
3:03 am 03:03 Cloudy 62 16.7 58 14.4 86 86 W 3 6 29.92 1013 10 16 0.00 0.00
3:10 am 03:10 Cloudy 62 16.7 58 14.4 86 86 WSW 3 6 29.92 1013 10 16 0.00 0.00
3:12 am 03:12 Cloudy 62 16.7 58 14.4 86 86 W 3 6 29.92 1013 10 16 0.00 0.00
3:53 am 03:53 Cloudy 61 16.1 58 14.4 90 90 NW 5 7 29.89 1012 10 16 0.00 0.00
4:06 am 04:06 Cloudy 61 16.1 58 14.4 90 90 WNW 3 6 29.91 1013 10 16 0.00 0.00
4:53 am 04:53 Cloudy with Mist and Fog 60 15.6 59 15 96 96 W 5 7 29.90 1013 5 8 0.00 0.00
5:22 am 05:22 Cloudy 60 15.6 59 15 96 96 W 5 7 29.90 1013 10 16 0.00 0.00
5:35 am 05:35 Cloudy 60 15.6 58 14.4 93 93 NW 7 11 29.90 1013 9 14 0.00 0.00
5:39 am 05:39 Cloudy with Mist and Fog 60 15.6 58 14.4 93 93 WNW 5 7 29.90 1013 6 10 0.00 0.00
5:46 am 05:46 Cloudy with Mist and Fog 60 15.6 58 14.4 93 93 WNW 7 11 29.90 1013 5 8 0.00 0.00
5:53 am 05:53 Cloudy 60 15.6 58 14.4 93 93 NW 5 7 29.88 1012 9 14 0.00 0.00
6:28 am 06:28 Cloudy 60 15.6 58 14.4 93 93 NW 5 7 29.89 1012 10 16 0.00 0.00
6:51 am 06:51 Cloudy 61 16 57 14 88 88 NNW 7 11 29.91 1013 9 14 0.00 0.00
6:53 am 06:53 Cloudy 60 15.6 57 13.9 90 90 NNW 7 11 29.90 1013 10 16 0.00 0.00
7:22 am 07:22 Cloudy 59 15 57 13.9 93 93 Calm 29.91 1013 10 16 0.00 0.00
7:31 am 07:31 Cloudy 59 15 56 13.3 90 90 WNW 6 9 29.92 1013 10 16 0.00 0.00
7:44 am 07:44 Cloudy 59 15 57 13.9 93 93 NNW 5 7 29.91 1013 10 16 0.00 0.00
7:49 am 07:49 Cloudy 59 15 57 14 94 94 NNW 5 7 29.91 1013 10 16 0.00 0.00
7:53 am 07:53 Cloudy 59 15 57 13.9 93 93 NNW 5 7 29.90 1013 10 16 0.00 0.00
8:53 am 08:53 Cloudy 58 14.4 53 11.7 84 84 WNW 8 13 29.91 1013 10 16 0.00 0.00
9:53 am 09:53 Sunny 58 14.4 50 10 75 75 NW 8 13 29.89 1012 10 16 0.00 0.00
10:53 am 10:53 Sunny 59 15 50 10 72 72 NW 8 13 29.93 1014 10 16 0.00 0.00
11:53 am 11:53 Mostly Cloudy 60 15.6 47 8.3 62 62 WNW 9 15 29.93 1014 10 16 0.00 0.00
12:53 pm 12:53 Mostly Sunny 64 17.8 45 7.2 50 50 NW 10 17 29.92 1013 10 16 0.00 0.00
1:53 pm 13:53 Sunny 66 18.9 41 5 40 40 NW 5 7 29.90 1012 10 16 0.00 0.00
2:53 pm 14:53 Sunny 68 20 38 3.3 33 33 NW 12 19 29.88 1012 10 16 0.00 0.00
3:53 pm 15:53 Sunny 69 20.6 40 4.4 35 35 NW 12 19 29.86 1011 10 16 0.00 0.00
4:53 pm 16:53 Sunny 69 20.6 39 3.9 33 33 VRB 7 11 29.85 1011 10 16 0.00 0.00
5:53 pm 17:53 Sunny 70 21.1 41 5 35 35 NW 10 17 29.84 1010 10 16 0.00 0.00
6:53 pm 18:53 Sunny 69 20.6 41 5 36 36 WNW 10 17 29.83 1010 10 16 0.00 0.00
7:53 pm 19:53 Sunny 66 18.9 39 3.9 37 37 NW 8 13 29.84 1011 10 16 0.00 0.00
8:53 pm 20:53 Clear 63 17.2 39 3.9 41 41 WNW 7 11 29.86 1011 10 16 0.00 0.00
9:53 pm 21:53 Clear 61 16.1 36 2.2 39 39 NNW 8 13 29.88 1012 10 16 0.00 0.00
10:53 pm 22:53 Clear 59 15 34 1.1 39 39 NNW 13 20 29.89 1012 10 16 0.00 0.00
11:53 pm 23:53 Clear 57 13.9 33 0.6 41 41 NNW 9 15 29.89 1012 10 16 0.00 0.00

Powered by AerisWeather